| time (UTC) | temp F | wind direction | speed MPH | gust MPH | rain 1hr in | rain 24hr in | rain mn in | humidity % | barometer mb |
| 20260831042928 | 90 | 148 | 3.0 | 6.0 | 0.00 | 0.00 | 0.00 | 44 | 1013.9 |
| 20260831042507 | 90 | 148 | 3.0 | 6.0 | 0.00 | 0.00 | 0.00 | 44 | 1013.8 |
| 20260831041939 | 90 | 148 | 4.0 | 6.0 | 0.00 | 0.00 | 0.00 | 44 | 1013.9 |
| 20260831041432 | 90 | 137 | 3.0 | 5.0 | 0.00 | 0.00 | 0.00 | 43 | 1013.8 |
| 20260831040937 | 90 | 137 | 4.0 | 5.0 | 0.00 | 0.00 | 0.00 | 43 | 1013.7 |
| 20260831040443 | 91 | 134 | 4.0 | 6.0 | 0.00 | 0.00 | 0.00 | 43 | 1013.7 |
| 20260831035948 | 91 | 129 | 4.0 | 7.0 | 0.00 | 0.00 | 0.00 | 42 | 1013.7 |
| 20260831035436 | 91 | 142 | 4.0 | 7.0 | 0.00 | 0.00 | 0.00 | 42 | 1013.7 |
| 20260831034929 | 92 | 136 | 4.0 | 6.0 | 0.00 | 0.00 | 0.00 | 41 | 1013.7 |
| 20260831034433 | 92 | 136 | 4.0 | 10.0 | 0.00 | 0.00 | 0.00 | 41 | 1013.6 |
| 20260831033925 | 92 | 110 | 6.0 | 10.0 | 0.00 | 0.00 | 0.00 | 41 | 1013.8 |
| 20260831033437 | 92 | 141 | 5.0 | 10.0 | 0.00 | 0.00 | 0.00 | 41 | 1013.7 |
| 20260831032938 | 92 | 140 | 4.0 | 6.0 | 0.00 | 0.00 | 0.00 | 41 | 1013.6 |
| 20260831032446 | 92 | 143 | 3.0 | 5.0 | 0.00 | 0.00 | 0.00 | 41 | 1013.6 |
| 20260831031950 | 92 | 137 | 4.0 | 5.0 | 0.00 | 0.00 | 0.00 | 41 | 1013.5 |
| 20260831031441 | 92 | 138 | 2.0 | 4.0 | 0.00 | 0.00 | 0.00 | 41 | 1013.5 |
| 20260831030942 | 92 | 136 | 2.0 | 4.0 | 0.00 | 0.00 | 0.00 | 41 | 1013.5 |
| 20260831030511 | 92 | 135 | 2.0 | 5.0 | 0.00 | 0.00 | 0.00 | 39 | 1013.5 |
| 20260831025956 | 92 | 133 | 3.0 | 5.0 | 0.00 | 0.00 | 0.00 | 39 | 1013.3 |
| 20260831025442 | 92 | 129 | 3.0 | 5.0 | 0.00 | 0.00 | 0.00 | 38 | 1013.3 |
| 20260831024947 | 92 | 124 | 3.0 | 6.0 | 0.00 | 0.00 | 0.00 | 38 | 1013.2 |
| 20260831024429 | 93 | 137 | 3.0 | 6.0 | 0.00 | 0.00 | 0.00 | 38 | 1013.3 |
| 20260831023936 | 93 | 136 | 4.0 | 6.0 | 0.00 | 0.00 | 0.00 | 37 | 1013.2 |
| 20260831023442 | 93 | 140 | 4.0 | 6.0 | 0.00 | 0.00 | 0.00 | 37 | 1013.1 |
| 20260831022939 | 93 | 133 | 3.0 | 6.0 | 0.00 | 0.00 | 0.00 | 36 | 1013.1 |
| 20260831022446 | 93 | 129 | 4.0 | 7.0 | 0.00 | 0.00 | 0.00 | 36 | 1013.0 |
| 20260831021955 | 93 | 131 | 4.0 | 7.0 | 0.00 | 0.00 | 0.00 | 36 | 1013.0 |
| 20260831021441 | 93 | 137 | 3.0 | 6.0 | 0.00 | 0.00 | 0.00 | 36 | 1012.9 |
| 20260831020924 | 93 | 137 | 3.0 | 6.0 | 0.00 | 0.00 | 0.00 | 36 | 1012.7 |
| 20260831020503 | 94 | 140 | 3.0 | 6.0 | 0.00 | 0.00 | 0.00 | 35 | 1012.6 |
| 20260831015941 | 94 | 140 | 3.0 | 4.0 | 0.00 | 0.00 | 0.00 | 35 | 1012.6 |
| 20260831015429 | 94 | 141 | 2.0 | 4.0 | 0.00 | 0.00 | 0.00 | 35 | 1012.5 |
| 20260831014937 | 94 | 141 | 1.0 | 4.0 | 0.00 | 0.00 | 0.00 | 35 | 1012.4 |
| 20260831014445 | 94 | 137 | 2.0 | 4.0 | 0.00 | 0.00 | 0.00 | 35 | 1012.4 |
| 20260831013935 | 94 | 137 | 2.0 | 5.0 | 0.00 | 0.00 | 0.00 | 35 | 1012.4 |
| 20260831013501 | 94 | 137 | 1.0 | 6.0 | 0.00 | 0.00 | 0.00 | 35 | 1012.3 |
| 20260831012928 | 94 | 133 | 4.0 | 6.0 | 0.00 | 0.00 | 0.00 | 34 | 1012.2 |
| 20260831012425 | 95 | 130 | 3.0 | 6.0 | 0.00 | 0.00 | 0.00 | 34 | 1012.2 |
| 20260831011938 | 95 | 141 | 3.0 | 6.0 | 0.00 | 0.00 | 0.00 | 34 | 1012.2 |
| 20260831011444 | 95 | 137 | 2.0 | 6.0 | 0.00 | 0.00 | 0.00 | 34 | 1012.2 |
| 20260831010935 | 95 | 135 | 3.0 | 7.0 | 0.00 | 0.00 | 0.00 | 33 | 1012.1 |
| 20260831010425 | 96 | 141 | 4.0 | 7.0 | 0.00 | 0.00 | 0.00 | 33 | 1012.1 |
| 20260831005936 | 96 | 130 | 4.0 | 9.0 | 0.00 | 0.00 | 0.00 | 33 | 1012.1 |
| 20260831005441 | 96 | 133 | 4.0 | 9.0 | 0.00 | 0.00 | 0.00 | 32 | 1012.0 |
| 20260831004931 | 96 | 119 | 5.0 | 9.0 | 0.00 | 0.00 | 0.00 | 32 | 1012.1 |
| 20260831004435 | 97 | 136 | 5.0 | 9.0 | 0.00 | 0.00 | 0.00 | 32 | 1012.0 |
| 20260831003947 | 97 | 148 | 5.0 | 9.0 | 0.00 | 0.00 | 0.00 | 31 | 1012.0 |
| 20260831003436 | 97 | 139 | 4.0 | 8.0 | 0.00 | 0.00 | 0.00 | 31 | 1012.0 |
| 20260831002943 | 97 | 112 | 5.0 | 9.0 | 0.00 | 0.00 | 0.00 | 31 | 1012.0 |
| 20260831002446 | 98 | 124 | 5.0 | 12.0 | 0.00 | 0.00 | 0.00 | 31 | 1011.9 |
| 20260831001952 | 98 | 137 | 5.0 | 12.0 | 0.00 | 0.00 | 0.00 | 30 | 1012.1 |
| 20260831001435 | 98 | 137 | 6.0 | 11.0 | 0.00 | 0.00 | 0.00 | 29 | 1012.0 |
| 20260831000933 | 98 | 135 | 6.0 | 11.0 | 0.00 | 0.00 | 0.00 | 30 | 1012.0 |
| 20260831000439 | 98 | 158 | 6.0 | 12.0 | 0.00 | 0.00 | 0.00 | 29 | 1012.1 |
| 20260830235926 | 99 | 121 | 6.0 | 13.0 | 0.00 | 0.00 | 0.00 | 29 | 1012.1 |
| 20260830235435 | 99 | 140 | 7.0 | 13.0 | 0.00 | 0.00 | 0.00 | 29 | 1012.1 |
| 20260830234941 | 99 | 171 | 7.0 | 11.0 | 0.00 | 0.00 | 0.00 | 28 | 1012.1 |
| 20260830234431 | 100 | 148 | 5.0 | 12.0 | 0.00 | 0.00 | 0.00 | 29 | 1012.2 |
| 20260830233940 | 100 | 144 | 7.0 | 12.0 | 0.00 | 0.00 | 0.00 | 28 | 1012.1 |
| 20260830233427 | 100 | 108 | 5.0 | 11.0 | 0.00 | 0.00 | 0.00 | 28 | 1012.1 |
| 20260830232928 | 100 | 108 | 5.0 | 11.0 | 0.00 | 0.00 | 0.00 | 28 | 1012.2 |
| 20260830232436 | 100 | 158 | 5.0 | 11.0 | 0.00 | 0.00 | 0.00 | 27 | 1012.2 |
| 20260830231940 | 100 | 119 | 6.0 | 13.0 | 0.00 | 0.00 | 0.00 | 27 | 1012.2 |
| 20260830231427 | 100 | 195 | 8.0 | 13.0 | 0.00 | 0.00 | 0.00 | 27 | 1012.1 |
| 20260830231002 | 100 | 207 | 5.0 | 14.0 | 0.00 | 0.00 | 0.00 | 27 | 1012.1 |
| 20260830230427 | 100 | 139 | 10.0 | 14.0 | 0.00 | 0.00 | 0.00 | 27 | 1012.2 |
| 20260830225930 | 100 | 218 | 5.0 | 12.0 | 0.00 | 0.00 | 0.00 | 27 | 1012.2 |
| 20260830225433 | 101 | 123 | 5.0 | 12.0 | 0.00 | 0.00 | 0.00 | 27 | 1012.2 |
| 20260830224943 | 101 | 200 | 7.0 | 13.0 | 0.00 | 0.00 | 0.00 | 27 | 1012.3 |
| 20260830224429 | 101 | 139 | 9.0 | 13.0 | 0.00 | 0.00 | 0.00 | 27 | 1012.4 |
| 20260830223933 | 101 | 195 | 3.0 | 15.0 | 0.00 | 0.00 | 0.00 | 27 | 1012.3 |
| 20260830223443 | 101 | 133 | 7.0 | 15.0 | 0.00 | 0.00 | 0.00 | 28 | 1012.4 |
| 20260830222927 | 101 | 148 | 9.0 | 13.0 | 0.00 | 0.00 | 0.00 | 27 | 1012.4 |
| 20260830222433 | 101 | 121 | 5.0 | 14.0 | 0.00 | 0.00 | 0.00 | 29 | 1012.4 |
| 20260830221933 | 101 | 133 | 5.0 | 11.0 | 0.00 | 0.00 | 0.00 | 28 | 1012.3 |
| 20260830221441 | 101 | 204 | 6.0 | 11.0 | 0.00 | 0.00 | 0.00 | 27 | 1012.3 |
| 20260830220925 | 102 | 129 | 7.0 | 11.0 | 0.00 | 0.00 | 0.00 | 26 | 1012.4 |
| 20260830220435 | 102 | 158 | 5.0 | 11.0 | 0.00 | 0.00 | 0.00 | 27 | 1012.4 |
| 20260830215947 | 101 | 140 | 5.0 | 11.0 | 0.00 | 0.00 | 0.00 | 27 | 1012.3 |
| 20260830215437 | 101 | 204 | 5.0 | 11.0 | 0.00 | 0.00 | 0.00 | 27 | 1012.3 |
| 20260830214945 | 101 | 181 | 4.0 | 14.0 | 0.00 | 0.00 | 0.00 | 27 | 1012.4 |
| 20260830214426 | 102 | 118 | 8.0 | 12.0 | 0.00 | 0.00 | 0.00 | 27 | 1012.5 |
| 20260830213936 | 102 | 127 | 5.0 | 14.0 | 0.00 | 0.00 | 0.00 | 27 | 1012.4 |
| 20260830213442 | 102 | 116 | 4.0 | 14.0 | 0.00 | 0.00 | 0.00 | 28 | 1012.5 |
| 20260830212946 | 102 | 105 | 9.0 | 14.0 | 0.00 | 0.00 | 0.00 | 28 | 1012.5 |
| 20260830212433 | 102 | 126 | 6.0 | 13.0 | 0.00 | 0.00 | 0.00 | 28 | 1012.5 |
| 20260830211943 | 101 | 148 | 7.0 | 13.0 | 0.00 | 0.00 | 0.00 | 29 | 1012.5 |
| 20260830211450 | 101 | 106 | 7.0 | 12.0 | 0.00 | 0.00 | 0.00 | 28 | 1012.6 |
| 20260830210951 | 101 | 115 | 7.0 | 12.0 | 0.00 | 0.00 | 0.00 | 28 | 1012.8 |
| 20260830210451 | 101 | 117 | 8.0 | 13.0 | 0.00 | 0.00 | 0.00 | 26 | 1012.8 |
| 20260830205956 | 101 | 162 | 6.0 | 14.0 | 0.00 | 0.00 | 0.00 | 29 | 1012.9 |
| 20260830205502 | 100 | 210 | 9.0 | 14.0 | 0.00 | 0.00 | 0.00 | 29 | 1012.9 |
| 20260830204928 | 101 | 209 | 5.0 | 15.0 | 0.00 | 0.00 | 0.00 | 29 | 1013.0 |
| 20260830204437 | 101 | 195 | 3.0 | 15.0 | 0.00 | 0.00 | 0.00 | 30 | 1013.1 |
| 20260830203941 | 101 | 208 | 9.0 | 14.0 | 0.00 | 0.00 | 0.00 | 29 | 1013.2 |
| 20260830203427 | 100 | 158 | 6.0 | 13.0 | 0.00 | 0.00 | 0.00 | 30 | 1013.3 |
| 20260830202935 | 101 | 195 | 8.0 | 14.0 | 0.00 | 0.00 | 0.00 | 29 | 1013.3 |
| 20260830202508 | 101 | 144 | 3.0 | 14.0 | 0.00 | 0.00 | 0.00 | 29 | 1013.3 |
| 20260830201932 | 101 | 158 | 4.0 | 11.0 | 0.00 | 0.00 | 0.00 | 29 | 1013.4 |
| 20260830201505 | 101 | 223 | 6.0 | 11.0 | 0.00 | 0.00 | 0.00 | 30 | 1013.5 |
| 20260830200942 | 101 | 181 | 8.0 | 14.0 | 0.00 | 0.00 | 0.00 | 29 | 1013.6 |
| 20260830200432 | 101 | 220 | 6.0 | 14.0 | 0.00 | 0.00 | 0.00 | 29 | 1013.6 |
| 20260830195938 | 101 | 180 | 8.0 | 13.0 | 0.00 | 0.00 | 0.00 | 30 | 1013.6 |
| 20260830195444 | 101 | 212 | 4.0 | 12.0 | 0.00 | 0.00 | 0.00 | 31 | 1013.7 |
| 20260830194930 | 101 | 176 | 7.0 | 15.0 | 0.00 | 0.00 | 0.00 | 30 | 1013.8 |
| 20260830194438 | 101 | 103 | 11.0 | 15.0 | 0.00 | 0.00 | 0.00 | 29 | 1013.7 |
| 20260830193944 | 102 | 200 | 7.0 | 16.0 | 0.00 | 0.00 | 0.00 | 30 | 1013.8 |
| 20260830193449 | 101 | 122 | 9.0 | 16.0 | 0.00 | 0.00 | 0.00 | 30 | 1013.9 |
| 20260830192932 | 101 | 107 | 4.0 | 13.0 | 0.00 | 0.00 | 0.00 | 31 | 1014.0 |
| 20260830192441 | 100 | 183 | 7.0 | 13.0 | 0.00 | 0.00 | 0.00 | 31 | 1014.0 |
| 20260830191931 | 100 | 117 | 6.0 | 14.0 | 0.00 | 0.00 | 0.00 | 31 | 1014.1 |
| 20260830191436 | 100 | 143 | 7.0 | 14.0 | 0.00 | 0.00 | 0.00 | 30 | 1014.1 |
| 20260830190941 | 100 | 142 | 7.0 | 13.0 | 0.00 | 0.00 | 0.00 | 31 | 1014.1 |
| 20260830190442 | 100 | 93 | 9.0 | 13.0 | 0.00 | 0.00 | 0.00 | 32 | 1014.3 |
| 20260830185927 | 100 | 140 | 7.0 | 14.0 | 0.00 | 0.00 | 0.00 | 32 | 1014.4 |
| 20260830185435 | 100 | 109 | 8.0 | 15.0 | 0.00 | 0.00 | 0.00 | 32 | 1014.4 |
| 20260830184941 | 100 | 158 | 10.0 | 15.0 | 0.00 | 0.00 | 0.00 | 31 | 1014.4 |
| 20260830184428 | 100 | 165 | 10.0 | 15.0 | 0.00 | 0.00 | 0.00 | 32 | 1014.5 |
| 20260830183932 | 100 | 126 | 5.0 | 17.0 | 0.00 | 0.00 | 0.00 | 34 | 1014.5 |
| 20260830183438 | 100 | 153 | 7.0 | 17.0 | 0.00 | 0.00 | 0.00 | 33 | 1014.6 |
| 20260830182928 | 99 | 192 | 7.0 | 14.0 | 0.00 | 0.00 | 0.00 | 35 | 1014.6 |
| 20260830182440 | 99 | 193 | 9.0 | 14.0 | 0.00 | 0.00 | 0.00 | 34 | 1014.9 |
| 20260830181930 | 98 | 187 | 4.0 | 12.0 | 0.00 | 0.00 | 0.00 | 36 | 1014.9 |
| 20260830181500 | 98 | 208 | 5.0 | 12.0 | 0.00 | 0.00 | 0.00 | 35 | 1015.0 |
| 20260830180940 | 99 | 189 | 7.0 | 12.0 | 0.00 | 0.00 | 0.00 | 36 | 1015.1 |
| 20260830180429 | 98 | 140 | 7.0 | 13.0 | 0.00 | 0.00 | 0.00 | 36 | 1015.1 |
| 20260830175938 | 98 | 187 | 8.0 | 17.0 | 0.00 | 0.00 | 0.00 | 35 | 1015.3 |
| 20260830175429 | 97 | 233 | 7.0 | 16.0 | 0.00 | 0.00 | 0.00 | 36 | 1015.3 |
| 20260830174958 | 97 | 222 | 7.0 | 16.0 | 0.00 | 0.00 | 0.00 | 36 | 1015.5 |
| 20260830174513 | 98 | 199 | 6.0 | 13.0 | 0.00 | 0.00 | 0.00 | 36 | 1015.4 |
| 20260830173955 | 98 | 186 | 8.0 | 14.0 | 0.00 | 0.00 | 0.00 | 37 | 1015.5 |
| 20260830173435 | 97 | 184 | 7.0 | 18.0 | 0.00 | 0.00 | 0.00 | 38 | 1015.6 |
| 20260830172945 | 97 | 153 | 7.0 | 18.0 | 0.00 | 0.00 | 0.00 | 38 | 1015.7 |
| 20260830172433 | 97 | 153 | 7.0 | 16.0 | 0.00 | 0.00 | 0.00 | 38 | 1015.6 |
| 20260830171935 | 97 | 213 | 12.0 | 16.0 | 0.00 | 0.00 | 0.00 | 37 | 1015.7 |
| 20260830171440 | 97 | 185 | 7.0 | 13.0 | 0.00 | 0.00 | 0.00 | 38 | 1015.9 |
| 20260830170928 | 97 | 220 | 5.0 | 15.0 | 0.00 | 0.00 | 0.00 | 40 | 1015.8 |
| 20260830170439 | 96 | 204 | 7.0 | 15.0 | 0.00 | 0.00 | 0.00 | 40 | 1015.9 |
| 20260830165947 | 96 | 201 | 6.0 | 13.0 | 0.00 | 0.00 | 0.00 | 41 | 1016.1 |
| 20260830165430 | 96 | 199 | 6.0 | 12.0 | 0.00 | 0.00 | 0.00 | 42 | 1016.1 |
| 20260830165005 | 96 | 228 | 6.0 | 12.0 | 0.00 | 0.00 | 0.00 | 41 | 1016.2 |
| 20260830164428 | 95 | 185 | 6.0 | 12.0 | 0.00 | 0.00 | 0.00 | 42 | 1016.3 |
| 20260830163947 | 95 | 126 | 6.0 | 14.0 | 0.00 | 0.00 | 0.00 | 42 | 1016.3 |
| 20260830163451 | 95 | 206 | 6.0 | 14.0 | 0.00 | 0.00 | 0.00 | 44 | 1016.2 |
| 20260830162956 | 95 | 227 | 7.0 | 16.0 | 0.00 | 0.00 | 0.00 | 44 | 1016.3 |
| 20260830162506 | 94 | 233 | 8.0 | 16.0 | 0.00 | 0.00 | 0.00 | 45 | 1016.3 |
| 20260830161927 | 94 | 217 | 7.0 | 12.0 | 0.00 | 0.00 | 0.00 | 46 | 1016.4 |
| 20260830161428 | 94 | 228 | 8.0 | 14.0 | 0.00 | 0.00 | 0.00 | 46 | 1016.5 |
| 20260830160936 | 94 | 221 | 4.0 | 14.0 | 0.00 | 0.00 | 0.00 | 47 | 1016.4 |
| 20260830160439 | 94 | 153 | 5.0 | 12.0 | 0.00 | 0.00 | 0.00 | 48 | 1016.3 |
| 20260830155944 | 93 | 209 | 8.0 | 12.0 | 0.00 | 0.00 | 0.00 | 48 | 1016.4 |
| 20260830155431 | 93 | 228 | 5.0 | 13.0 | 0.00 | 0.00 | 0.00 | 49 | 1016.4 |
| 20260830154939 | 93 | 231 | 7.0 | 14.0 | 0.00 | 0.00 | 0.00 | 49 | 1016.4 |
| 20260830154444 | 92 | 206 | 5.0 | 14.0 | 0.00 | 0.00 | 0.00 | 49 | 1016.5 |
| 20260830153928 | 92 | 203 | 7.0 | 11.0 | 0.00 | 0.00 | 0.00 | 49 | 1016.5 |
| 20260830153435 | 92 | 229 | 5.0 | 12.0 | 0.00 | 0.00 | 0.00 | 49 | 1016.4 |
| 20260830152936 | 92 | 196 | 5.0 | 13.0 | 0.00 | 0.00 | 0.00 | 50 | 1016.3 |
| 20260830152440 | 91 | 214 | 9.0 | 13.0 | 0.00 | 0.00 | 0.00 | 49 | 1016.3 |
| 20260830151927 | 91 | 210 | 3.0 | 12.0 | 0.00 | 0.00 | 0.00 | 50 | 1016.4 |
| 20260830151433 | 91 | 204 | 6.0 | 12.0 | 0.00 | 0.00 | 0.00 | 51 | 1016.3 |
| 20260830150940 | 91 | 202 | 6.0 | 11.0 | 0.00 | 0.00 | 0.00 | 51 | 1016.3 |
| 20260830150446 | 90 | 227 | 5.0 | 10.0 | 0.00 | 0.00 | 0.00 | 52 | 1016.4 |
| 20260830145930 | 90 | 211 | 4.0 | 11.0 | 0.00 | 0.00 | 0.00 | 52 | 1016.4 |
| 20260830145435 | 89 | 197 | 7.0 | 11.0 | 0.00 | 0.00 | 0.00 | 52 | 1016.4 |
| 20260830145001 | 89 | 210 | 5.0 | 10.0 | 0.00 | 0.00 | 0.00 | 53 | 1016.3 |
| 20260830144428 | 89 | 237 | 7.0 | 10.0 | 0.00 | 0.00 | 0.00 | 53 | 1016.3 |
| 20260830143933 | 89 | 235 | 6.0 | 11.0 | 0.00 | 0.00 | 0.00 | 54 | 1016.3 |
| 20260830143437 | 88 | 224 | 5.0 | 11.0 | 0.00 | 0.00 | 0.00 | 54 | 1016.3 |
| 20260830142924 | 88 | 239 | 5.0 | 11.0 | 0.00 | 0.00 | 0.00 | 55 | 1016.3 |
| 20260830142449 | 87 | 177 | 7.0 | 11.0 | 0.00 | 0.00 | 0.00 | 55 | 1016.4 |
| 20260830141933 | 87 | 202 | 6.0 | 12.0 | 0.00 | 0.00 | 0.00 | 56 | 1016.4 |
| 20260830141505 | 87 | 230 | 9.0 | 12.0 | 0.00 | 0.00 | 0.00 | 56 | 1016.4 |
| 20260830140928 | 86 | 217 | 6.0 | 10.0 | 0.00 | 0.00 | 0.00 | 57 | 1016.3 |
| 20260830140432 | 86 | 191 | 5.0 | 11.0 | 0.00 | 0.00 | 0.00 | 58 | 1016.3 |
| 20260830135942 | 85 | 243 | 6.0 | 13.0 | 0.00 | 0.00 | 0.00 | 59 | 1016.3 |
| 20260830135432 | 85 | 229 | 5.0 | 12.0 | 0.00 | 0.00 | 0.00 | 61 | 1016.4 |
| 20260830134938 | 84 | 217 | 4.0 | 10.0 | 0.00 | 0.00 | 0.00 | 62 | 1016.4 |
| 20260830134425 | 84 | 245 | 6.0 | 10.0 | 0.00 | 0.00 | 0.00 | 62 | 1016.4 |
| 20260830133929 | 84 | 210 | 4.0 | 10.0 | 0.00 | 0.00 | 0.00 | 63 | 1016.3 |
| 20260830133504 | 83 | 208 | 4.0 | 8.0 | 0.00 | 0.00 | 0.00 | 63 | 1016.3 |
| 20260830132948 | 83 | 202 | 3.0 | 7.0 | 0.00 | 0.00 | 0.00 | 64 | 1016.3 |
| 20260830132432 | 83 | 201 | 4.0 | 6.0 | 0.00 | 0.00 | 0.00 | 64 | 1016.2 |
| 20260830131937 | 83 | 199 | 4.0 | 7.0 | 0.00 | 0.00 | 0.00 | 65 | 1016.2 |
| 20260830131441 | 83 | 189 | 2.0 | 7.0 | 0.00 | 0.00 | 0.00 | 65 | 1016.1 |
| 20260830130932 | 82 | 206 | 4.0 | 7.0 | 0.00 | 0.00 | 0.00 | 65 | 1016.1 |
| 20260830130435 | 82 | 201 | 3.0 | 6.0 | 0.00 | 0.00 | 0.00 | 66 | 1016.0 |
| 20260830125940 | 82 | 207 | 3.0 | 6.0 | 0.00 | 0.00 | 0.00 | 66 | 1015.9 |
| 20260830125431 | 82 | 211 | 3.0 | 6.0 | 0.00 | 0.00 | 0.00 | 66 | 1015.8 |
| 20260830125006 | 82 | 208 | 2.0 | 6.0 | 0.00 | 0.00 | 0.00 | 66 | 1015.8 |
| 20260830124453 | 81 | 208 | 3.0 | 6.0 | 0.00 | 0.00 | 0.00 | 67 | 1015.7 |
| 20260830123939 | 81 | 207 | 3.0 | 6.0 | 0.00 | 0.00 | 0.00 | 66 | 1015.7 |
| 20260830123429 | 81 | 204 | 3.0 | 7.0 | 0.00 | 0.00 | 0.00 | 66 | 1015.6 |
| 20260830122946 | 81 | 204 | 3.0 | 7.0 | 0.00 | 0.00 | 0.00 | 66 | 1015.6 |
| 20260830122430 | 81 | 201 | 4.0 | 9.0 | 0.00 | 0.00 | 0.00 | 66 | 1015.4 |
| 20260830121937 | 81 | 201 | 5.0 | 9.0 | 0.00 | 0.00 | 0.00 | 66 | 1015.5 |
| 20260830121446 | 81 | 197 | 4.0 | 7.0 | 0.00 | 0.00 | 0.00 | 66 | 1015.4 |
| 20260830120950 | 82 | 203 | 4.0 | 7.0 | 0.00 | 0.00 | 0.00 | 66 | 1015.4 |
| 20260830120432 | 82 | 193 | 4.0 | 7.0 | 0.00 | 0.00 | 0.00 | 65 | 1015.3 |
| 20260830115925 | 82 | 191 | 3.0 | 7.0 | 0.00 | 0.00 | 0.00 | 65 | 1015.3 |
| 20260830115448 | 82 | 207 | 4.0 | 7.0 | 0.00 | 0.00 | 0.00 | 65 | 1015.2 |
| 20260830114958 | 82 | 205 | 4.0 | 6.0 | 0.00 | 0.00 | 0.00 | 65 | 1015.2 |
| 20260830114441 | 82 | 199 | 4.0 | 7.0 | 0.00 | 0.00 | 0.00 | 65 | 1015.2 |
| 20260830113930 | 82 | 183 | 3.0 | 7.0 | 0.00 | 0.00 | 0.00 | 65 | 1015.1 |
| 20260830113454 | 82 | 163 | 3.0 | 6.0 | 0.00 | 0.00 | 0.00 | 65 | 1015.0 |
| 20260830112941 | 82 | 197 | 3.0 | 6.0 | 0.00 | 0.00 | 0.00 | 65 | 1015.2 |
| 20260830112506 | 82 | 205 | 3.0 | 5.0 | 0.00 | 0.00 | 0.00 | 64 | 1015.0 |
| 20260830111933 | 82 | 209 | 3.0 | 5.0 | 0.00 | 0.00 | 0.00 | 64 | 1014.9 |
| 20260830111438 | 82 | 207 | 3.0 | 5.0 | 0.00 | 0.00 | 0.00 | 64 | 1014.8 |
| 20260830110944 | 82 | 209 | 1.0 | 5.0 | 0.00 | 0.00 | 0.00 | 64 | 1014.7 |
| 20260830110431 | 82 | 210 | 3.0 | 5.0 | 0.00 | 0.00 | 0.00 | 64 | 1014.8 |
| 20260830105935 | 82 | 211 | 2.0 | 4.0 | 0.00 | 0.00 | 0.00 | 64 | 1014.7 |
| 20260830105442 | 82 | 211 | 2.0 | 6.0 | 0.00 | 0.00 | 0.00 | 63 | 1014.6 |
| 20260830104945 | 82 | 209 | 2.0 | 6.0 | 0.00 | 0.00 | 0.00 | 63 | 1014.6 |
| 20260830104433 | 83 | 207 | 3.0 | 6.0 | 0.00 | 0.00 | 0.00 | 62 | 1014.5 |
| 20260830103941 | 83 | 206 | 4.0 | 6.0 | 0.00 | 0.00 | 0.00 | 62 | 1014.5 |
| 20260830103446 | 83 | 205 | 0.0 | 4.0 | 0.00 | 0.00 | 0.00 | 62 | 1014.5 |
| 20260830102932 | 83 | 206 | 2.0 | 4.0 | 0.00 | 0.00 | 0.00 | 62 | 1014.4 |
| 20260830102439 | 83 | 206 | 2.0 | 4.0 | 0.00 | 0.00 | 0.00 | 61 | 1014.4 |
| 20260830101931 | 83 | 205 | 2.0 | 3.0 | 0.00 | 0.00 | 0.00 | 61 | 1014.4 |
| 20260830101436 | 83 | 204 | 1.0 | 5.0 | 0.00 | 0.00 | 0.00 | 61 | 1014.3 |
| 20260830100944 | 83 | 204 | 2.0 | 5.0 | 0.00 | 0.00 | 0.00 | 60 | 1014.3 |
| 20260830100430 | 84 | 210 | 3.0 | 6.0 | 0.00 | 0.00 | 0.00 | 60 | 1014.3 |
| 20260830095936 | 84 | 204 | 3.0 | 6.0 | 0.00 | 0.00 | 0.00 | 59 | 1014.2 |
| 20260830095445 | 84 | 205 | 3.0 | 7.0 | 0.00 | 0.00 | 0.00 | 59 | 1014.2 |
| 20260830094927 | 84 | 206 | 4.0 | 7.0 | 0.00 | 0.00 | 0.00 | 59 | 1014.1 |
| 20260830094441 | 84 | 204 | 4.0 | 7.0 | 0.00 | 0.00 | 0.00 | 59 | 1014.2 |
| 20260830093925 | 85 | 210 | 3.0 | 9.0 | 0.00 | 0.00 | 0.00 | 58 | 1014.2 |
| 20260830093430 | 85 | 214 | 4.0 | 9.0 | 0.00 | 0.00 | 0.00 | 58 | 1014.2 |
| 20260830092933 | 85 | 202 | 5.0 | 9.0 | 0.00 | 0.00 | 0.00 | 57 | 1014.2 |
| 20260830092441 | 85 | 222 | 4.0 | 10.0 | 0.00 | 0.00 | 0.00 | 57 | 1014.2 |
| 20260830091928 | 85 | 199 | 5.0 | 11.0 | 0.00 | 0.00 | 0.00 | 57 | 1014.2 |
| 20260830091451 | 85 | 194 | 4.0 | 11.0 | 0.00 | 0.00 | 0.00 | 56 | 1014.2 |
| 20260830090936 | 85 | 218 | 8.0 | 11.0 | 0.00 | 0.00 | 0.00 | 56 | 1014.2 |
| 20260830090434 | 86 | 211 | 6.0 | 13.0 | 0.00 | 0.00 | 0.00 | 56 | 1014.2 |
| 20260830085945 | 86 | 208 | 8.0 | 13.0 | 0.00 | 0.00 | 0.00 | 56 | 1014.1 |
| 20260830085429 | 86 | 222 | 6.0 | 14.0 | 0.00 | 0.00 | 0.00 | 56 | 1014.2 |
| 20260830084939 | 86 | 187 | 6.0 | 14.0 | 0.00 | 0.00 | 0.00 | 55 | 1014.2 |
| 20260830084440 | 85 | 196 | 7.0 | 13.0 | 0.00 | 0.00 | 0.00 | 55 | 1014.2 |
| 20260830083952 | 85 | 193 | 8.0 | 13.0 | 0.00 | 0.00 | 0.00 | 55 | 1014.2 |
| 20260830083437 | 85 | 219 | 5.0 | 9.0 | 0.00 | 0.00 | 0.00 | 55 | 1014.2 |
| 20260830082928 | 84 | 207 | 3.0 | 7.0 | 0.00 | 0.00 | 0.00 | 54 | 1014.2 |
| 20260830082432 | 84 | 213 | 4.0 | 6.0 | 0.00 | 0.00 | 0.00 | 54 | 1014.2 |
| 20260830081936 | 85 | 208 | 3.0 | 5.0 | 0.00 | 0.00 | 0.00 | 54 | 1014.2 |
| 20260830081446 | 85 | 208 | 3.0 | 6.0 | 0.00 | 0.00 | 0.00 | 54 | 1014.2 |
| 20260830080935 | 85 | 207 | 3.0 | 6.0 | 0.00 | 0.00 | 0.00 | 53 | 1014.2 |
| 20260830080424 | 85 | 206 | 4.0 | 6.0 | 0.00 | 0.00 | 0.00 | 52 | 1014.3 |
| 20260830075935 | 85 | 208 | 3.0 | 5.0 | 0.00 | 0.00 | 0.00 | 52 | 1014.2 |
| 20260830075439 | 86 | 206 | 2.0 | 6.0 | 0.00 | 0.00 | 0.00 | 52 | 1014.2 |
| 20260830074927 | 86 | 204 | 4.0 | 6.0 | 0.00 | 0.00 | 0.00 | 51 | 1014.2 |
| 20260830074447 | 86 | 212 | 4.0 | 6.0 | 0.00 | 0.00 | 0.00 | 51 | 1014.2 |
| 20260830073950 | 86 | 188 | 4.0 | 8.0 | 0.00 | 0.00 | 0.00 | 51 | 1014.2 |
| 20260830073436 | 86 | 175 | 4.0 | 8.0 | 0.00 | 0.00 | 0.00 | 50 | 1014.2 |
| 20260830072941 | 87 | 191 | 4.0 | 8.0 | 0.00 | 0.00 | 0.00 | 50 | 1014.2 |
| 20260830072431 | 87 | 195 | 3.0 | 8.0 | 0.00 | 0.00 | 0.00 | 50 | 1014.2 |
| 20260830071937 | 87 | 185 | 4.0 | 7.0 | 0.00 | 0.00 | 0.00 | 50 | 1014.3 |
| 20260830071438 | 87 | 189 | 5.0 | 7.0 | 0.00 | 0.00 | 0.00 | 49 | 1014.4 |
| 20260830070947 | 87 | 196 | 4.0 | 7.0 | 0.00 | 0.00 | 0.00 | 49 | 1014.3 |
| 20260830070431 | 87 | 192 | 4.0 | 7.0 | 0.00 | 0.00 | 0.00 | 48 | 1014.4 |
| 20260830070002 | 88 | 188 | 4.0 | 10.0 | 0.00 | 0.00 | 0.00 | 48 | 1014.4 |
| 20260830065425 | 88 | 173 | 5.0 | 10.0 | 0.00 | 0.00 | 0.00 | 48 | 1014.4 |
| 20260830064931 | 88 | 209 | 5.0 | 10.0 | 0.00 | 0.00 | 0.00 | 48 | 1014.5 |
| 20260830064433 | 88 | 179 | 5.0 | 9.0 | 0.00 | 0.00 | 0.00 | 48 | 1014.5 |
| 20260830063940 | 88 | 182 | 4.0 | 7.0 | 0.00 | 0.00 | 0.00 | 48 | 1014.4 |
| 20260830063445 | 88 | 177 | 4.0 | 9.0 | 0.00 | 0.00 | 0.00 | 47 | 1014.4 |
| 20260830062930 | 88 | 185 | 5.0 | 9.0 | 0.00 | 0.00 | 0.00 | 47 | 1014.5 |
| 20260830062443 | 88 | 175 | 5.0 | 9.0 | 0.00 | 0.00 | 0.00 | 47 | 1014.5 |
| 20260830061932 | 88 | 153 | 5.0 | 9.0 | 0.00 | 0.00 | 0.00 | 47 | 1014.5 |
| 20260830061442 | 88 | 197 | 5.0 | 11.0 | 0.00 | 0.00 | 0.00 | 46 | 1014.5 |
| 20260830060944 | 89 | 180 | 5.0 | 11.0 | 0.00 | 0.00 | 0.00 | 46 | 1014.4 |
| 20260830060442 | 89 | 190 | 4.0 | 9.0 | 0.00 | 0.00 | 0.00 | 46 | 1014.4 |
| 20260830055928 | 89 | 208 | 6.0 | 9.0 | 0.00 | 0.00 | 0.00 | 46 | 1014.4 |
| 20260830055439 | 89 | 195 | 5.0 | 11.0 | 0.00 | 0.00 | 0.00 | 46 | 1014.4 |
| 20260830054929 | 89 | 187 | 6.0 | 11.0 | 0.00 | 0.00 | 0.00 | 46 | 1014.4 |
| 20260830054503 | 89 | 177 | 4.0 | 6.0 | 0.00 | 0.00 | 0.00 | 45 | 1014.5 |
| 20260830053930 | 89 | 196 | 4.0 | 9.0 | 0.00 | 0.00 | 0.00 | 45 | 1014.5 |
| 20260830053431 | 89 | 183 | 3.0 | 9.0 | 0.00 | 0.00 | 0.00 | 45 | 1014.5 |
| 20260830052932 | 89 | 176 | 5.0 | 7.0 | 0.00 | 0.00 | 0.00 | 44 | 1014.4 |
| 20260830052442 | 90 | 176 | 4.0 | 8.0 | 0.00 | 0.00 | 0.00 | 44 | 1014.4 |
| 20260830051934 | 90 | 141 | 5.0 | 8.0 | 0.00 | 0.00 | 0.00 | 44 | 1014.5 |
| 20260830051424 | 90 | 174 | 5.0 | 11.0 | 0.00 | 0.00 | 0.00 | 43 | 1014.5 |
| 20260830051001 | 90 | 153 | 4.0 | 11.0 | 0.00 | 0.00 | 0.00 | 43 | 1014.5 |
| 20260830050447 | 90 | 193 | 6.0 | 10.0 | 0.00 | 0.00 | 0.00 | 43 | 1014.6 |
| 20260830045956 | 90 | 148 | 5.0 | 10.0 | 0.00 | 0.00 | 0.00 | 43 | 1014.4 |
| 20260830045443 | 90 | 148 | 3.0 | 11.0 | 0.00 | 0.00 | 0.00 | 42 | 1014.5 |
| 20260830044936 | 90 | 134 | 5.0 | 11.0 | 0.00 | 0.00 | 0.00 | 42 | 1014.4 |
| 20260830044425 | 90 | 180 | 4.0 | 9.0 | 0.00 | 0.00 | 0.00 | 43 | 1014.5 |
| 20260830043936 | 90 | 175 | 4.0 | 7.0 | 0.00 | 0.00 | 0.00 | 43 | 1014.4 |
| 20260830043425 | 90 | 181 | 4.0 | 6.0 | 0.00 | 0.00 | 0.00 | 43 | 1014.6 |